Charter Quote
Worldwide +1-877-727-2538 Call
Select Language Lang
SAFETY RELIABILITY EXPERIENCE

Private Jet Charter Services - Taiping (ZYHB)

Paramount Business Jets offers private jet charter flights and luxury airliner charters to and from Taiping.

AIRPORT INFORMATION
ICAOZYHB
LOCATIONHarbin, China
FACILITY TYPEAIRPORT

At Paramount Business Jets you can hire chartered private jets to and from Taiping with as little as 4 hours of notice. All flights booked via Paramount Business Jets are operated by certified direct air carriers that meet and exceed the FAA part 135 and 121 protocol or a foreign equivalent safety authority. Furthermore, Paramount Business Jets subscribes to ARGUS for their third party safety checks of operators, aircraft, and crews prior each and every flight to and from Taiping and worldwide.

  • Quote a trip using Taiping or call us 24/7 - 365 days a year at +1-877-727-2538.
Questions? Call +1-877-727-2538

METAR Weather Data at Taiping, ZYHB

STATIONZYHB
OBSERVEDMon Oct 21, 19:00 UTC
NOWMon Oct 21, 19:51 UTC
AGE51 min ago
WINDSSE at 7 mph
VISIBILITYgreater than 7 miles
CLOUDSclear skies
TEMP37°F (3°C)
WIND CHILL32°F (0°C)
DEWPT21°F (-6°C)
HUMIDITY52%
BAROMETER1018 hPa (30.06 in Hg)
METARZYHB 211900Z 16003MPS CAVOK 03/M06 Q1018 NOSIG

Call us on +1-877-727-2538 (24 Hours) to Hire a Private Jet or Get a Quick Quote.

Find Airports Near any Location

Processing
...